Wind_Speed
14 14 14 14 15 15 16 17 18 19 20 20 20 20 21 21 21 21 21 21 21 21 21 21 21 21 21 21 21 21 21 22 22 23 24 25 26 26 26 26 26 25 24 22 21 21 21 21 21 22 22 22 22 23 23 24 25 25 25 25 25 26 27 27 28 28 28 29 29
14 14 14 14 15 16 17 18 18 19 20 20 20 20 21 21 21 21 21 21 21 21 21 21 21 21 21 21 21 21 21 22 23 23 24 25 25 26 26 26 26 25 24 23 22 21 21 21 21 22 22 22 22 22 23 23 24 25 25 25 25 26 27 28 28 28 29 29 29
14 14 14 14 15 16 17 18 19 19 20 20 20 20 20 20 21 21 21 21 21 21 21 21 21 21 21 21 21 21 21 22 23 24 24 25 25 26 26 26 25 25 24 23 22 22 22 21 22 22 23 23 23 23 23 23 24 24 25 25 26 26 27 28 28 28 29 29 30
14 14 14 14 15 16 17 18 19 19 19 20 20 20 20 20 20 21 21 21 21 21 21 21 21 21 21 21 21 21 22 22 23 24 24 25 25 25 25 25 25 25 24 23 23 22 22 22 22 22 23 23 23 23 24 24 24 25 25 26 26 26 27 28 28 28 29 30 30
14 14 14 14 15 16 17 18 19 19 19 19 20 20 20 20 20 20 21 20 20 20 21 21 21 21 21 21 21 22 22 22 23 23 24 25 25 25 25 25 25 25 24 24 23 22 22 22 22 23 24 24 24 24 24 24 25 25 26 26 27 27 27 28 28 28 29 29 30
14 14 14 14 15 16 17 18 18 19 19 19 19 19 19 19 20 20 20 20 20 21 21 21 21 21 21 21 22 22 22 22 23 23 24 25 25 25 25 25 25 25 25 24 23 23 23 23 24 24 24 25 25 25 24 25 25 26 27 27 28 28 28 28 28 28 29 29 30
14 14 14 14 15 16 17 18 18 19 19 19 19 19 19 19 19 20 20 20 20 21 21 21 21 21 21 22 22 22 22 22 23 23 24 24 25 25 25 25 25 25 25 24 24 24 24 24 25 25 26 25 26 25 25 25 26 27 28 28 29 29 29 28 28 29 29 29 30
14 14 14 14 15 16 17 18 18 19 19 19 19 19 19 19 19 19 20 20 20 20 21 21 21 21 21 22 22 22 22 23 23 23 24 24 24 25 25 25 25 25 24 24 25 25 25 25 25 26 26 25 26 26 26 25 26 27 28 29 29 29 29 29 28 28 29 29 30
14 13 14 14 15 16 17 17 18 18 19 19 18 18 19 19 19 19 20 20 20 20 20 21 21 21 21 21 21 22 22 22 23 23 24 24 24 25 25 25 25 25 24 24 25 25 25 25 25 25 25 25 25 26 26 26 26 27 28 29 29 30 29 29 28 28 28 29 30
14 13 14 14 15 16 17 17 18 18 18 18 18 18 18 18 19 19 19 20 20 20 20 20 21 21 21 21 21 21 22 22 23 23 23 24 24 24 25 25 25 25 24 24 24 25 25 25 24 24 24 24 25 26 26 26 26 27 28 28 29 29 30 29 28 28 28 29 30
14 14 14 14 15 16 17 17 18 18 18 18 18 18 18 18 18 19 19 20 20 20 20 20 21 21 21 21 21 21 21 22 22 23 23 23 23 24 24 24 24 24 24 24 24 24 24 24 24 24 24 24 25 26 26 26 27 27 28 28 28 29 29 29 28 28 29 30 30
14 14 14 14 15 16 17 17 18 18 18 18 18 18 17 17 18 18 19 19 19 19 20 20 20 20 20 20 20 21 21 21 22 22 22 23 23 23 23 23 23 23 23 23 23 23 24 24 24 24 25 25 25 26 26 27 27 27 28 28 28 28 29 29 29 29 30 31 31
14 14 14 14 15 16 17 17 18 18 18 18 18 17 17 17 17 18 18 19 19 19 19 19 20 20 20 20 20 20 21 21 21 21 22 22 22 22 22 22 22 22 22 23 23 23 23 24 24 24 25 25 25 25 26 26 26 27 27 27 27 28 28 29 29 30 32 34 33
14 14 14 14 15 16 16 17 18 18 18 17 17 17 17 17 17 18 18 19 19 19 19 19 19 19 19 20 20 20 20 21 21 21 21 21 21 21 21 21 22 22 22 22 22 22 23 23 24 24 25 25 25 25 25 25 25 26 26 26 27 28 28 29 31 33 35 36 34
14 14 14 14 15 16 16 17 18 18 17 17 17 16 16 17 17 17 18 18 19 19 19 19 19 19 19 19 19 20 20 20 20 20 20 20 20 20 21 21 21 22 22 22 22 22 23 23 24 24 25 25 25 25 25 24 24 24 25 25 26 27 29 31 33 35 38 38 33
14 14 14 14 15 16 16 17 17 17 17 17 16 16 16 16 17 17 18 18 18 19 19 19 19 19 18 19 19 19 19 19 19 19 20 20 20 20 20 21 21 22 22 22 22 22 22 23 23 24 24 25 25 25 24 24 24 24 24 24 25 27 29 32 36 39 40 37 31
14 14 14 14 15 16 16 17 17 17 17 16 16 16 16 16 16 17 17 18 18 19 18 18 18 18 18 18 18 19 19 19 19 19 19 19 20 20 20 21 21 21 21 22 22 22 22 22 23 23 24 24 24 24 24 24 23 23 23 24 25 27 30 34 38 40 40 35 27
14 14 14 14 15 15 16 17 17 17 16 16 16 16 16 16 16 17 17 18 18 18 18 18 18 18 18 18 18 18 18 18 18 18 18 19 19 20 20 20 20 20 21 21 21 21 22 22 23 23 23 23 23 23 23 23 23 23 23 24 25 28 31 34 37 38 35 29 23
15 14 14 14 15 15 16 16 16 16 16 16 15 15 15 16 16 16 17 17 18 18 18 18 18 17 18 18 18 18 18 18 18 18 18 18 19 19 19 20 20 20 20 20 21 21 22 22 23 23 23 23 23 23 23 23 23 24 24 25 26 28 31 33 34 33 29 23 20
15 14 14 14 15 15 16 16 16 16 16 15 15 15 15 15 16 16 17 17 17 18 18 18 17 17 17 17 18 17 17 17 17 17 17 18 18 19 19 20 20 20 20 20 20 21 22 23 23 23 23 23 23 23 24 25 26 28 29 30 29 29 30 32 32 29 25 21 19
15 14 14 14 15 15 16 16 16 16 15 15 15 15 15 15 16 16 17 17 17 17 17 17 17 17 17 17 17 17 17 17 17 17 17 17 18 18 19 19 19 20 20 20 21 21 22 23 23 23 23 23 24 25 27 30 32 35 36 37 36 34 31 30 30 28 24 20 19
15 14 14 15 15 15 15 16 16 15 15 14 14 14 14 15 15 16 16 17 17 17 17 17 17 17 17 17 17 17 17 16 16 16 16 17 17 18 18 18 19 19 20 20 21 22 23 24 24 24 24 26 27 30 33 36 38 40 41 42 41 38 34 31 29 27 24 20 18
15 15 15 15 15 15 15 15 15 15 15 14 14 14 14 14 15 15 16 16 16 16 16 16 16 16 16 17 17 17 17 17 16 16 16 16 17 17 17 17 18 18 19 20 21 23 24 25 26 26 27 29 32 35 38 40 39 38 39 40 39 37 35 32 30 27 23 20 18
15 15 15 15 15 15 15 15 15 15 14 14 14 14 14 14 15 15 15 16 16 16 16 16 16 16 16 16 16 16 17 17 16 16 16 16 16 16 17 17 17 18 19 20 21 23 24 26 27 28 30 32 35 38 39 38 35 35 36 37 36 34 33 32 30 27 22 19 19
16 16 15 15 15 15 15 15 15 15 14 14 13 13 14 14 14 15 15 15 15 15 15 15 15 16 16 16 16 16 16 16 16 16 17 16 16 16 16 16 17 17 18 19 21 23 24 25 26 27 29 32 35 37 36 33 32 33 34 35 34 32 30 30 29 25 21 19 19
16 16 15 15 15 15 15 15 15 15 14 13 13 13 13 14 14 15 15 15 15 15 15 15 15 15 16 16 16 15 15 15 16 16 17 17 17 17 16 16 16 17 18 19 21 23 24 25 25 26 28 30 33 35 34 31 30 31 33 34 33 31 29 28 26 24 22 21 20
17 16 16 15 15 15 15 15 15 14 14 13 13 13 13 14 14 14 15 15 14 14 15 15 15 15 16 16 16 15 15 15 16 16 17 17 18 17 17 16 16 17 18 19 21 23 25 25 26 26 28 30 33 34 32 30 29 30 31 32 31 30 28 25 24 23 22 22 21
17 16 16 16 15 15 15 15 15 14 14 13 13 13 13 13 14 14 14 14 14 14 14 14 14 15 15 15 15 15 16 16 16 16 17 17 18 18 17 17 17 17 18 19 21 23 25 25 26 26 28 31 33 33 30 28 28 29 30 30 29 28 26 24 23 22 22 22 22
18 17 16 16 16 15 15 15 15 14 14 13 13 13 13 13 13 13 14 14 14 14 14 14 14 15 15 15 15 16 16 16 16 16 17 17 17 17 17 17 17 17 18 20 22 23 25 25 26 27 29 31 33 31 28 26 27 28 29 28 28 27 26 24 23 22 21 21 21
18 17 17 16 16 15 15 15 14 14 14 14 13 13 13 13 13 13 13 13 13 13 14 14 14 15 15 15 16 16 16 16 16 17 17 17 17 17 17 17 17 17 18 19 21 23 24 25 26 27 30 32 31 28 25 25 27 28 28 28 27 27 26 25 23 21 20 20 20
18 18 17 16 16 15 15 14 14 15 14 14 13 13 12 13 13 13 13 13 13 13 13 14 14 14 15 15 16 16 17 17 17 17 16 16 17 17 17 17 16 17 18 19 21 23 24 25 26 28 31 33 29 24 23 26 28 28 28 27 28 28 28 26 23 21 19 19 19
19 18 17 16 16 15 15 15 15 15 14 14 13 12 12 12 12 13 13 13 13 13 13 13 14 14 15 15 16 16 17 17 17 16 16 16 16 17 17 17 16 16 17 19 20 22 23 25 26 29 32 31 25 22 24 28 29 29 28 28 28 29 29 28 24 21 19 18 18
19 19 18 17 16 15 15 15 15 15 14 14 13 12 12 12 12 12 13 13 13 13 13 13 14 15 15 16 17 17 17 17 17 16 16 15 16 16 16 16 16 16 17 18 19 21 23 24 27 30 31 27 22 22 26 29 30 30 29 28 28 30 30 28 24 20 18 17 17
20 19 18 17 16 15 15 15 15 15 14 14 13 12 12 12 12 12 13 13 13 13 13 13 14 15 15 16 17 18 18 18 17 16 15 15 15 15 15 15 15 15 16 17 18 20 21 24 28 30 29 23 21 24 28 30 31 30 29 28 28 29 29 27 23 20 18 17 18
20 19 18 17 16 16 15 15 15 15 14 14 13 12 12 12 13 12 12 12 13 13 13 13 14 15 15 16 17 18 18 18 17 16 15 15 14 15 15 15 14 14 15 16 17 18 20 23 28 29 26 22 22 26 29 31 31 30 29 28 28 28 27 25 22 20 18 19 19
20 19 18 17 16 16 16 15 15 15 14 14 13 12 12 13 12 12 12 12 12 13 13 13 14 14 15 16 17 17 17 17 17 16 15 14 14 15 15 15 14 13 14 14 15 17 19 22 27 27 25 22 23 26 29 30 30 30 28 28 28 28 27 24 21 19 19 20 21
21 19 18 17 17 16 16 16 15 15 14 13 13 13 13 13 12 12 12 12 12 13 13 13 14 14 15 16 17 17 17 16 16 15 15 14 14 14 15 15 14 13 13 14 14 16 18 21 25 26 24 22 24 26 28 30 30 29 28 28 29 29 28 25 22 20 19 20 21
21 20 19 18 17 16 16 16 16 15 14 13 13 13 13 13 12 12 12 12 12 13 13 13 13 14 15 16 17 17 16 15 15 15 14 14 14 14 15 15 14 13 13 13 14 15 16 19 22 24 23 22 23 26 28 29 29 29 28 29 30 30 30 27 24 21 19 19 20
21 20 19 18 17 17 16 16 16 15 14 13 13 13 13 13 12 12 12 12 12 12 13 13 13 14 15 16 16 16 16 15 14 14 14 13 13 13 14 14 14 13 12 12 13 14 15 17 20 21 21 21 23 25 28 29 28 28 28 29 30 31 31 29 26 23 20 19 18
21 21 20 19 18 17 16 16 15 15 14 14 14 13 13 13 12 12 12 12 12 12 12 13 13 14 15 15 16 16 16 14 13 13 13 13 13 13 13 13 14 13 12 11 12 12 13 15 18 19 20 20 22 25 27 28 28 27 27 28 29 30 31 30 28 25 22 20 18
22 21 20 19 18 17 17 16 15 15 14 14 14 13 13 13 12 12 12 11 12 12 12 13 13 14 14 15 16 16 16 15 13 12 12 12 12 12 12 13 13 12 12 11 11 11 12 13 16 18 19 19 22 25 27 27 26 25 25 27 28 30 30 30 28 26 24 21 19
Wind_Direction
287 292 297 302 305 307 309 311 312 314 315 318 319 321 323 324 324 325 325 325 325 325 325 325 325 326 326 328 328 327 325 323 320 318 316 314 314 315 315 316 316 314 311 306 302 300 300 301 303 305 307 308 310 312 314 316 317 317 317 316 315 314 313 313 314 316 317 319 319
286 291 296 301 305 307 309 310 312 314 316 318 320 321 322 323 324 325 325 325 325 324 324 324 324 325 325 327 327 326 325 323 321 319 317 316 316 316 316 316 316 314 312 308 304 301 300 300 302 303 305 306 307 309 312 314 315 316 316 316 316 314 313 313 313 314 314 314 316
285 290 296 300 304 306 308 310 312 314 316 318 319 321 322 323 324 324 324 324 324 324 323 323 323 324 325 326 326 326 324 323 321 319 318 317 317 317 317 316 316 315 313 310 307 303 300 299 300 301 302 303 305 306 309 311 313 314 314 315 315 314 313 312 313 312 312 311 312
284 289 295 300 303 305 307 309 311 313 315 317 318 320 321 322 322 323 323 323 323 323 323 323 324 324 325 326 325 325 324 323 321 319 318 318 317 317 317 317 317 316 316 314 311 307 304 301 300 299 300 301 302 303 306 308 310 311 312 312 312 312 312 312 312 312 311 310 310
282 288 294 298 302 304 306 309 310 312 314 316 317 319 320 321 321 322 322 323 323 323 324 324 324 324 324 324 324 324 324 323 321 320 318 318 318 318 318 318 317 318 318 318 316 313 310 306 302 300 299 299 299 301 303 305 307 307 308 308 309 309 310 311 312 312 311 310 309
281 287 293 297 300 303 305 307 310 312 314 315 316 317 318 319 320 321 322 323 324 324 324 324 324 323 323 324 324 324 324 323 322 320 319 318 318 318 318 318 318 319 319 320 320 318 315 312 307 303 301 299 299 299 301 302 303 304 304 304 305 306 307 308 310 311 311 310 309
280 286 291 295 299 302 304 306 309 311 313 314 315 316 317 318 319 321 322 323 324 325 325 324 324 324 324 324 324 324 323 323 322 321 320 319 319 319 319 319 319 320 320 321 321 320 318 314 309 306 304 303 301 301 301 301 301 300 300 300 301 303 304 305 307 309 310 310 309
279 285 290 295 298 301 303 306 308 309 311 312 313 314 316 318 320 321 323 324 325 325 325 325 324 324 324 324 324 324 323 323 322 321 321 320 320 320 320 320 320 320 321 322 321 319 317 315 311 308 307 306 305 304 303 302 301 299 298 298 299 300 301 303 304 306 308 310 310
278 284 289 293 297 300 303 305 306 308 309 310 311 313 316 318 320 322 323 324 325 326 326 325 325 324 324 324 324 324 324 323 322 322 322 322 322 321 321 321 321 321 322 322 320 319 317 315 313 312 311 309 308 307 306 305 303 300 298 298 298 299 300 301 303 305 307 309 310
277 282 287 291 295 299 301 303 305 306 307 309 311 313 316 318 321 322 323 324 325 326 326 326 325 324 324 324 324 324 324 324 323 323 323 324 323 323 323 323 323 323 322 322 320 319 317 316 315 315 314 312 311 310 309 308 305 303 301 300 300 300 301 302 303 304 306 309 310
275 280 285 290 294 297 300 302 303 305 306 308 310 313 316 318 320 322 323 325 325 326 326 326 325 324 324 324 324 324 325 325 325 325 325 325 326 325 325 324 324 324 323 322 321 319 318 317 317 316 316 315 313 312 311 310 308 306 304 303 303 303 304 304 305 305 306 308 309
273 278 283 288 293 296 299 301 302 303 305 308 310 313 315 318 320 322 323 324 325 325 326 325 324 324 323 324 324 325 325 326 326 327 327 327 328 327 327 326 326 325 324 323 322 320 319 318 318 318 317 316 315 314 312 312 310 309 308 307 307 307 307 308 308 307 307 307 307
270 276 282 287 291 295 298 300 301 303 305 307 310 313 315 318 320 322 323 324 324 325 325 325 324 323 323 323 324 325 327 328 328 329 329 329 330 329 329 328 327 326 325 324 323 321 320 320 319 319 318 317 316 315 313 312 311 310 310 310 310 310 310 310 310 309 307 305 306
269 275 281 286 290 294 297 299 301 302 304 307 309 312 315 318 320 322 323 323 324 324 324 323 323 322 323 323 325 326 328 329 330 330 330 331 331 331 330 330 329 328 327 326 325 323 322 322 321 321 319 317 316 315 314 313 312 312 311 312 312 312 312 312 311 308 305 303 305
269 275 280 285 289 293 295 298 300 302 304 306 309 312 315 318 320 321 322 322 323 323 322 322 322 322 323 324 326 327 328 329 330 330 331 332 332 332 332 331 331 330 329 328 326 325 324 324 323 322 319 317 315 315 314 314 313 313 312 312 312 313 313 312 310 306 303 302 306
268 274 279 283 287 291 294 297 299 301 304 306 309 312 314 317 319 320 321 321 321 321 321 321 322 323 324 325 326 327 328 329 330 330 331 332 333 334 333 333 332 331 330 328 327 326 325 324 323 321 318 315 314 314 315 315 315 314 313 313 313 314 315 315 311 306 303 303 307
267 272 277 282 286 290 293 295 298 300 303 306 308 311 313 315 317 319 319 319 319 320 320 321 322 323 324 326 327 328 328 328 329 330 331 332 333 334 334 333 332 331 330 329 328 327 326 324 321 318 316 314 313 313 315 316 315 314 313 313 314 317 319 318 314 309 306 306 308
265 270 275 280 285 289 291 294 296 299 302 304 307 309 312 314 316 317 318 318 318 318 319 321 323 324 325 326 327 328 328 327 328 329 330 331 332 333 333 333 332 332 331 330 329 328 326 323 320 317 315 313 313 313 314 315 314 313 313 314 317 320 322 321 317 313 311 310 309
264 268 273 278 283 287 289 292 295 297 300 302 305 308 310 313 314 315 316 316 316 317 319 320 322 324 325 326 326 326 326 325 326 326 328 329 331 332 333 333 333 332 332 331 329 327 325 322 319 317 315 314 314 314 314 312 311 310 309 311 315 320 322 321 318 316 314 311 309
261 266 271 276 281 284 287 290 293 295 298 301 304 306 309 311 313 314 314 314 315 316 318 320 322 324 325 325 325 325 325 324 324 325 326 328 330 332 333 333 333 333 332 331 329 327 324 321 319 317 317 316 316 314 313 311 308 307 306 306 309 314 318 319 317 315 313 309 310
260 265 269 274 278 282 285 288 291 293 296 299 302 305 307 309 311 312 313 313 314 315 317 320 322 324 325 325 324 324 324 324 323 324 325 327 329 331 332 332 332 331 331 330 329 326 323 320 319 318 319 319 318 316 313 311 310 309 309 309 308 308 310 313 313 312 310 308 313
258 263 267 272 276 280 283 286 289 292 295 298 301 304 306 308 309 310 311 312 313 315 317 319 322 324 324 324 323 323 323 323 323 323 324 326 328 329 331 331 330 330 330 329 328 326 323 320 320 321 322 322 321 318 316 314 314 317 320 321 318 312 308 307 308 309 309 311 318
256 261 265 269 274 278 281 284 287 290 293 296 299 302 304 306 307 308 309 310 312 314 317 320 323 324 324 323 322 322 322 322 323 323 324 325 326 327 328 328 328 328 329 329 328 326 324 323 323 325 325 324 321 318 316 316 319 327 333 334 330 321 312 307 305 306 309 315 325
254 258 263 267 272 276 280 283 285 288 291 294 297 299 301 303 305 306 308 309 311 314 317 321 323 323 323 322 321 321 321 322 323 324 324 324 324 324 325 325 325 326 327 327 327 326 325 325 325 325 323 321 318 316 315 318 326 335 339 339 336 330 321 312 307 306 310 320 329
252 257 261 266 270 274 278 281 284 286 289 292 294 297 300 302 303 305 306 308 311 314 318 321 322 323 322 320 320 320 322 323 324 324 324 323 322 322 321 322 322 323 324 325 325 325 326 325 323 321 319 317 315 314 316 321 331 336 336 336 337 337 331 321 312 310 314 324 330
251 255 259 264 268 272 276 279 282 284 287 289 292 295 298 300 301 303 305 308 311 315 319 321 322 322 320 319 320 321 323 325 326 325 323 321 320 319 319 318 319 321 322 323 324 325 325 323 321 319 318 317 316 316 318 324 330 333 333 335 338 341 338 330 321 317 320 326 330
249 253 257 262 266 270 274 277 279 282 284 287 290 293 295 298 300 302 304 308 312 316 319 321 321 320 319 319 320 322 325 327 327 325 322 320 317 316 315 316 316 318 320 321 322 323 323 322 321 320 320 320 319 319 321 327 332 335 336 338 341 343 343 338 331 327 327 328 329
248 252 255 259 263 267 271 275 277 280 282 285 287 290 293 296 298 301 304 308 312 315 318 319 319 319 319 319 320 323 325 327 327 325 322 318 315 313 312 312 313 315 317 319 320 321 322 322 322 322 322 321 320 321 325 331 337 339 340 341 342 344 344 343 340 336 333 331 330
247 250 253 257 261 265 269 272 275 278 280 282 285 288 291 294 297 300 303 307 311 313 315 317 318 318 319 320 322 323 326 328 328 325 321 317 313 310 310 310 311 314 316 318 319 321 323 324 323 323 323 322 321 323 330 339 343 344 344 343 343 343 342 341 340 338 336 334 332
245 248 251 255 259 263 267 270 273 275 277 279 282 286 290 293 296 299 302 305 308 311 314 316 317 319 320 321 323 324 326 327 327 325 321 316 311 309 308 308 310 314 316 318 319 322 324 325 325 324 324 323 323 327 337 345 347 347 346 345 343 341 339 337 336 337 337 336 334
244 246 250 254 258 262 265 268 270 272 274 277 280 284 288 292 294 297 300 303 306 309 312 315 317 319 321 322 323 324 325 326 327 325 321 316 311 308 307 308 311 314 317 319 321 324 326 327 326 326 326 325 325 333 344 349 349 348 347 345 344 341 338 334 333 334 335 335 335
242 245 248 252 256 259 262 265 267 269 271 275 278 282 286 290 292 295 298 301 304 308 311 314 316 318 320 321 323 324 326 327 327 325 322 317 312 308 308 309 311 315 319 320 324 327 329 329 329 329 328 327 330 340 348 350 349 348 346 345 344 342 339 335 331 331 333 334 333
241 243 246 250 253 257 260 262 264 267 269 272 276 280 283 286 290 292 295 298 302 306 310 314 316 318 321 323 325 326 327 328 327 326 322 318 313 309 307 309 313 317 321 323 327 330 331 332 332 331 329 329 336 345 348 348 347 346 344 344 345 345 342 337 332 330 331 333 333
240 242 245 248 251 254 257 259 262 264 267 270 273 277 281 284 287 289 292 296 300 305 310 314 317 319 322 324 326 327 328 328 327 326 323 318 314 309 307 309 314 320 324 326 330 332 335 335 334 332 331 332 341 346 347 346 345 344 343 344 346 347 345 340 334 330 331 333 334
239 241 243 246 249 252 254 257 260 262 265 268 271 274 278 281 284 287 290 294 299 304 309 313 316 319 322 324 326 327 328 328 327 326 323 319 314 310 308 310 316 322 327 329 332 335 338 338 336 333 332 336 343 345 344 344 344 343 343 344 346 349 348 345 338 333 331 334 336
238 240 242 244 247 250 252 255 257 260 263 265 268 271 274 277 281 285 289 293 298 303 308 312 315 319 322 324 326 328 329 328 327 325 322 318 313 310 309 311 317 324 329 332 334 337 340 341 338 335 335 339 343 343 342 342 343 343 343 344 347 349 350 348 343 337 334 334 336
237 239 241 243 245 248 251 253 255 258 260 263 266 269 271 274 278 282 287 292 297 302 307 311 315 319 323 325 327 329 330 329 327 324 320 316 312 309 309 311 317 325 331 334 337 340 342 343 341 338 336 339 341 341 341 342 343 343 343 344 346 348 349 348 345 341 337 336 336
235 237 239 241 244 246 249 251 254 256 258 261 263 266 269 272 276 281 286 291 295 300 305 310 315 320 324 327 329 330 331 330 326 322 317 313 309 307 308 311 317 324 331 335 338 341 345 347 344 340 338 339 340 340 341 342 343 343 344 345 346 347 347 347 345 342 339 336 336
235 236 238 240 242 245 247 250 252 254 256 258 260 263 267 271 275 280 284 288 293 299 304 310 315 321 325 327 329 331 331 330 326 320 315 310 307 305 305 308 314 321 329 334 338 341 346 348 346 343 339 338 338 339 341 342 343 344 344 344 344 346 347 348 347 344 341 339 337
234 235 237 239 241 243 246 248 250 252 253 255 258 261 265 269 273 277 281 286 292 298 304 310 316 321 326 328 329 330 331 331 327 320 314 308 305 303 302 304 308 315 324 332 339 343 345 348 347 344 341 339 338 338 340 341 344 345 345 343 343 344 347 349 349 348 346 344 342
232 234 236 238 240 242 244 246 248 250 251 253 256 259 263 267 270 275 279 285 291 297 303 310 316 322 326 328 329 329 330 330 328 322 315 308 303 300 299 300 303 309 318 329 338 343 346 348 348 346 344 341 339 337 338 340 345 347 345 341 341 343 347 349 350 351 351 350 348
Height
1532 1531 1531 1530 1530 1529 1529 1528 1527 1527 1526 1525 1523 1522 1521 1520 1519 1518 1517 1516 1515 1514 1513 1512 1511 1510 1509 1508 1507 1506 1505 1504 1503 1502 1502 1500 1499 1498 1497 1496 1495 1494 1493 1492 1491 1490 1489 1488 1487 1486 1485 1484 1482 1482 1480 1479 1478 1476 1475 1473 1472 1471 1470 1468 1467 1465 1464 1463 1462
1530 1530 1529 1529 1528 1528 1527 1527 1526 1525 1524 1523 1522 1521 1520 1518 1517 1516 1516 1515 1514 1512 1512 1511 1510 1508 1507 1507 1506 1505 1503 1502 1502 1501 1500 1499 1498 1497 1496 1494 1493 1492 1491 1490 1489 1488 1487 1486 1485 1484 1483 1482 1481 1480 1479 1478 1477 1475 1473 1472 1471 1469 1468 1467 1465 1464 1462 1461 1460
1529 1528 1528 1527 1527 1526 1526 1525 1524 1523 1522 1521 1520 1519 1518 1517 1516 1515 1514 1513 1512 1511 1510 1509 1508 1507 1506 1505 1504 1503 1502 1501 1500 1499 1498 1497 1496 1495 1494 1493 1492 1491 1490 1488 1487 1487 1486 1485 1483 1482 1481 1480 1479 1478 1477 1476 1475 1473 1472 1470 1469 1468 1467 1465 1463 1462 1461 1459 1458
1527 1527 1526 1526 1525 1525 1524 1523 1523 1522 1521 1520 1519 1518 1517 1516 1515 1514 1513 1512 1511 1510 1509 1508 1507 1506 1505 1503 1502 1502 1501 1500 1499 1497 1497 1495 1494 1493 1492 1491 1490 1489 1488 1487 1486 1485 1484 1483 1482 1481 1479 1478 1477 1476 1475 1474 1473 1472 1470 1469 1467 1466 1465 1463 1462 1461 1459 1458 1456
1526 1525 1525 1524 1524 1523 1523 1522 1522 1521 1520 1519 1517 1517 1515 1514 1513 1512 1512 1511 1510 1509 1508 1507 1505 1504 1503 1502 1501 1500 1499 1498 1497 1496 1495 1494 1493 1492 1491 1490 1488 1487 1486 1485 1484 1483 1482 1481 1480 1479 1477 1476 1475 1474 1473 1472 1471 1470 1468 1467 1466 1464 1463 1462 1460 1459 1457 1456 1455
1524 1524 1523 1523 1522 1522 1522 1521 1520 1519 1518 1517 1516 1515 1514 1513 1512 1511 1510 1509 1508 1507 1506 1505 1504 1503 1502 1501 1500 1499 1498 1497 1496 1495 1493 1492 1491 1490 1489 1488 1487 1485 1484 1483 1482 1481 1480 1479 1478 1477 1476 1474 1473 1472 1471 1471 1469 1468 1466 1465 1464 1462 1461 1460 1458 1457 1456 1454 1452
1522 1522 1522 1521 1521 1521 1520 1519 1518 1518 1517 1516 1515 1514 1513 1512 1511 1510 1509 1508 1507 1506 1505 1504 1503 1502 1501 1499 1498 1497 1497 1495 1494 1493 1492 1491 1490 1488 1487 1486 1485 1483 1482 1481 1480 1479 1478 1477 1476 1475 1473 1472 1471 1470 1469 1469 1467 1466 1464 1463 1462 1460 1459 1458 1457 1455 1454 1452 1451
1521 1521 1520 1520 1519 1519 1518 1518 1517 1516 1515 1515 1514 1513 1512 1511 1510 1508 1507 1507 1506 1505 1503 1502 1501 1500 1499 1498 1497 1496 1495 1494 1493 1492 1491 1489 1488 1487 1486 1484 1483 1482 1481 1480 1478 1477 1477 1475 1474 1473 1472 1470 1469 1468 1467 1467 1465 1464 1462 1461 1459 1458 1457 1456 1454 1453 1452 1450 1448
1519 1519 1519 1518 1518 1517 1517 1516 1516 1515 1514 1513 1512 1512 1510 1509 1508 1507 1506 1505 1504 1503 1502 1501 1500 1499 1498 1497 1496 1495 1494 1492 1491 1490 1489 1488 1486 1485 1484 1482 1481 1480 1479 1478 1477 1476 1475 1473 1472 1471 1470 1469 1467 1466 1465 1464 1463 1462 1460 1458 1457 1456 1455 1453 1452 1451 1449 1448 1446
1518 1517 1517 1517 1517 1516 1515 1515 1514 1514 1513 1512 1511 1510 1509 1508 1507 1506 1505 1504 1503 1502 1501 1500 1499 1498 1497 1496 1495 1493 1492 1491 1490 1488 1487 1486 1485 1483 1482 1481 1479 1478 1477 1476 1475 1474 1473 1472 1470 1469 1468 1467 1466 1464 1463 1462 1461 1459 1458 1457 1455 1453 1452 1451 1450 1449 1447 1446 1444
1516 1516 1516 1515 1515 1514 1514 1513 1513 1512 1512 1511 1510 1509 1507 1507 1505 1504 1503 1502 1502 1501 1500 1498 1497 1496 1495 1494 1493 1492 1491 1490 1488 1487 1486 1485 1483 1482 1481 1479 1478 1477 1475 1474 1473 1472 1471 1470 1468 1467 1466 1465 1464 1462 1461 1460 1459 1457 1456 1454 1453 1452 1450 1448 1447 1447 1445 1443 1442
1515 1514 1514 1514 1513 1513 1512 1512 1512 1511 1510 1509 1508 1507 1506 1505 1504 1503 1502 1501 1500 1499 1498 1497 1496 1495 1494 1493 1492 1491 1490 1488 1487 1486 1484 1483 1482 1481 1479 1478 1477 1475 1474 1473 1472 1471 1469 1468 1467 1465 1464 1463 1462 1461 1459 1458 1457 1455 1454 1452 1451 1449 1448 1446 1445 1444 1442 1441 1440
1513 1513 1512 1512 1512 1511 1511 1510 1510 1509 1508 1508 1507 1506 1505 1504 1503 1502 1501 1500 1499 1498 1497 1496 1495 1494 1493 1492 1491 1489 1488 1487 1486 1484 1483 1482 1481 1479 1478 1477 1475 1474 1472 1471 1470 1469 1468 1467 1465 1464 1462 1461 1460 1458 1457 1456 1455 1453 1452 1450 1449 1447 1446 1444 1443 1442 1440 1438 1437
1511 1511 1511 1510 1510 1510 1509 1509 1508 1508 1507 1506 1505 1504 1503 1502 1501 1500 1499 1498 1497 1497 1496 1495 1494 1493 1492 1490 1489 1488 1487 1485 1484 1483 1482 1481 1479 1478 1477 1475 1474 1472 1471 1470 1469 1467 1466 1465 1463 1462 1461 1459 1458 1457 1456 1454 1453 1451 1450 1448 1447 1445 1444 1442 1440 1439 1437 1436 1435
1509 1509 1509 1509 1508 1508 1508 1507 1507 1506 1506 1505 1504 1503 1502 1501 1500 1499 1498 1497 1496 1495 1494 1493 1492 1492 1491 1489 1488 1487 1485 1484 1483 1482 1480 1479 1478 1477 1475 1474 1472 1471 1470 1468 1467 1466 1465 1463 1462 1460 1459 1457 1456 1455 1453 1452 1451 1450 1448 1447 1445 1443 1441 1439 1437 1436 1435 1434 1434
1507 1507 1507 1507 1507 1507 1506 1506 1505 1505 1504 1503 1502 1501 1500 1499 1498 1497 1497 1496 1495 1494 1493 1492 1491 1490 1489 1488 1487 1485 1484 1483 1482 1480 1479 1478 1477 1475 1474 1472 1471 1470 1468 1467 1466 1464 1463 1462 1460 1459 1457 1456 1454 1453 1452 1451 1449 1448 1446 1444 1442 1440 1438 1436 1435 1433 1432 1432 1432
1506 1506 1505 1505 1505 1505 1504 1504 1504 1503 1502 1502 1501 1500 1499 1498 1497 1496 1495 1494 1493 1492 1492 1491 1490 1489 1487 1487 1485 1484 1483 1482 1480 1479 1478 1477 1475 1474 1472 1471 1470 1468 1467 1466 1464 1463 1462 1460 1459 1457 1456 1454 1453 1452 1450 1449 1447 1446 1444 1442 1440 1437 1436 1434 1432 1432 1431 1431 1431
1504 1504 1504 1503 1503 1503 1503 1502 1502 1502 1501 1500 1499 1498 1497 1497 1496 1495 1494 1493 1492 1491 1490 1489 1488 1487 1486 1485 1484 1483 1482 1480 1479 1478 1477 1476 1474 1473 1472 1470 1469 1467 1466 1464 1463 1461 1460 1458 1457 1456 1454 1453 1452 1450 1449 1447 1446 1444 1442 1440 1438 1436 1433 1432 1431 1430 1430 1429 1429
1502 1502 1502 1502 1502 1502 1501 1501 1500 1500 1499 1498 1498 1497 1496 1495 1494 1493 1493 1492 1491 1490 1489 1488 1487 1486 1485 1484 1482 1482 1480 1479 1478 1477 1476 1474 1473 1472 1470 1469 1467 1466 1465 1463 1462 1460 1458 1457 1456 1454 1453 1452 1450 1449 1447 1445 1443 1442 1440 1438 1436 1434 1432 1430 1429 1428 1427 1427 1426
1500 1500 1500 1500 1500 1500 1500 1499 1499 1498 1498 1497 1496 1495 1495 1494 1493 1492 1492 1491 1490 1489 1487 1487 1485 1484 1483 1482 1481 1480 1479 1478 1477 1476 1474 1473 1472 1470 1469 1467 1466 1465 1463 1462 1460 1459 1457 1455 1454 1452 1451 1450 1448 1447 1445 1443 1441 1439 1437 1436 1434 1432 1431 1429 1427 1426 1425 1424 1424
1498 1498 1498 1498 1498 1498 1498 1498 1497 1497 1496 1495 1495 1494 1493 1492 1492 1491 1490 1489 1488 1487 1486 1485 1484 1483 1482 1481 1480 1479 1478 1477 1476 1474 1473 1472 1471 1469 1468 1466 1465 1463 1462 1461 1459 1457 1456 1454 1452 1451 1450 1448 1447 1444 1442 1440 1438 1436 1435 1433 1431 1430 1429 1427 1426 1425 1424 1423 1422
1497 1497 1497 1497 1497 1496 1496 1496 1496 1495 1495 1494 1493 1492 1492 1491 1490 1489 1489 1488 1487 1486 1485 1484 1482 1481 1480 1479 1478 1477 1477 1476 1475 1473 1472 1471 1469 1468 1467 1465 1464 1462 1461 1459 1457 1456 1454 1452 1451 1449 1448 1446 1444 1442 1439 1437 1435 1434 1432 1431 1429 1428 1427 1426 1425 1424 1423 1422 1421
1495 1495 1495 1495 1495 1495 1494 1494 1494 1493 1493 1492 1492 1491 1490 1490 1489 1488 1487 1487 1486 1484 1483 1482 1481 1480 1479 1478 1477 1476 1475 1474 1473 1472 1471 1469 1468 1467 1466 1464 1463 1461 1460 1458 1457 1454 1452 1451 1449 1447 1446 1444 1442 1439 1437 1435 1434 1433 1432 1431 1428 1427 1426 1425 1424 1423 1422 1422 1420
1493 1493 1493 1493 1493 1493 1493 1492 1492 1492 1491 1491 1490 1489 1489 1488 1487 1487 1486 1485 1484 1483 1482 1481 1480 1479 1478 1477 1476 1475 1474 1472 1471 1470 1469 1468 1467 1466 1464 1463 1462 1460 1459 1457 1456 1454 1452 1450 1448 1447 1445 1443 1441 1439 1437 1436 1436 1435 1433 1431 1429 1427 1426 1425 1424 1422 1422 1420 1419
1491 1491 1491 1491 1491 1491 1491 1491 1491 1490 1490 1489 1489 1488 1487 1487 1486 1485 1485 1484 1483 1482 1480 1479 1478 1477 1477 1476 1475 1474 1473 1471 1470 1468 1467 1466 1465 1464 1463 1462 1461 1459 1458 1456 1455 1453 1451 1450 1449 1448 1446 1443 1441 1439 1438 1438 1437 1435 1433 1431 1428 1427 1425 1424 1423 1422 1420 1419 1418
1489 1489 1489 1489 1489 1489 1489 1489 1489 1488 1488 1487 1487 1487 1486 1485 1485 1484 1483 1482 1481 1480 1479 1478 1477 1476 1475 1474 1473 1472 1471 1470 1469 1467 1466 1465 1464 1463 1462 1461 1459 1458 1457 1455 1454 1452 1451 1450 1449 1448 1446 1443 1441 1439 1439 1438 1436 1434 1432 1430 1427 1425 1424 1422 1422 1421 1420 1418 1417
1487 1487 1487 1487 1487 1487 1487 1487 1487 1487 1487 1486 1486 1485 1484 1484 1483 1482 1482 1481 1480 1479 1477 1477 1476 1475 1474 1473 1472 1471 1470 1468 1467 1466 1465 1463 1462 1461 1460 1459 1458 1457 1456 1454 1453 1451 1450 1449 1448 1447 1445 1442 1440 1439 1438 1436 1434 1432 1431 1428 1426 1424 1423 1422 1420 1419 1418 1417 1416
1485 1485 1485 1486 1486 1486 1486 1486 1485 1485 1485 1484 1484 1483 1483 1482 1482 1481 1480 1479 1478 1477 1476 1475 1474 1473 1472 1472 1471 1469 1468 1467 1466 1465 1463 1462 1461 1460 1459 1458 1457 1456 1454 1453 1452 1450 1449 1447 1447 1445 1443 1442 1440 1439 1437 1435 1433 1431 1429 1427 1425 1424 1422 1421 1419 1418 1417 1415 1414
1483 1483 1483 1483 1484 1484 1484 1484 1483 1483 1483 1483 1482 1482 1481 1481 1480 1479 1478 1477 1477 1476 1475 1474 1473 1472 1471 1470 1469 1468 1467 1466 1464 1463 1462 1461 1460 1459 1457 1457 1455 1454 1453 1452 1451 1449 1447 1446 1445 1444 1442 1441 1440 1438 1437 1434 1432 1430 1428 1427 1425 1423 1421 1420 1418 1417 1415 1414 1412
1481 1481 1482 1482 1482 1482 1482 1482 1482 1482 1482 1481 1481 1480 1480 1479 1478 1478 1477 1476 1475 1474 1473 1472 1472 1471 1470 1468 1467 1466 1465 1464 1463 1462 1461 1459 1458 1457 1456 1455 1454 1453 1452 1451 1450 1448 1447 1445 1444 1443 1441 1440 1439 1437 1435 1433 1431 1429 1427 1426 1424 1422 1420 1419 1417 1416 1414 1413 1411
1479 1479 1479 1480 1480 1480 1480 1480 1480 1480 1480 1479 1479 1478 1478 1477 1477 1476 1476 1475 1474 1473 1472 1471 1470 1469 1468 1467 1466 1465 1464 1463 1462 1461 1459 1458 1457 1456 1455 1454 1453 1452 1451 1450 1449 1447 1445 1444 1443 1442 1440 1439 1438 1436 1433 1432 1430 1428 1427 1425 1423 1421 1420 1418 1416 1415 1413 1412 1410
1477 1477 1477 1478 1478 1478 1478 1478 1478 1478 1478 1478 1477 1477 1477 1476 1475 1475 1474 1473 1472 1472 1471 1470 1469 1468 1467 1466 1465 1464 1462 1461 1460 1459 1458 1457 1455 1454 1453 1452 1452 1451 1450 1449 1447 1446 1444 1443 1442 1440 1439 1438 1437 1434 1432 1431 1429 1428 1426 1424 1422 1420 1418 1417 1415 1413 1412 1411 1409
1475 1475 1475 1476 1476 1476 1477 1477 1477 1476 1476 1476 1476 1475 1475 1474 1474 1473 1473 1472 1471 1470 1469 1468 1467 1466 1465 1464 1463 1462 1461 1460 1459 1457 1457 1455 1454 1453 1452 1451 1451 1450 1449 1448 1447 1445 1443 1442 1441 1439 1438 1438 1435 1433 1432 1430 1428 1427 1426 1424 1422 1419 1417 1415 1414 1412 1411 1410 1408
1472 1473 1473 1474 1474 1474 1475 1475 1475 1474 1474 1474 1474 1474 1473 1473 1472 1472 1471 1471 1470 1469 1468 1467 1466 1465 1464 1463 1462 1461 1459 1458 1457 1456 1455 1454 1453 1452 1451 1450 1449 1449 1448 1447 1445 1444 1442 1441 1439 1438 1437 1436 1434 1432 1430 1429 1427 1426 1425 1423 1421 1418 1417 1415 1413 1411 1410 1409 1407
1471 1471 1471 1472 1472 1472 1473 1473 1473 1472 1472 1472 1472 1472 1472 1472 1471 1471 1470 1469 1468 1467 1467 1466 1465 1464 1463 1462 1461 1459 1458 1457 1456 1455 1454 1452 1452 1451 1450 1449 1448 1448 1447 1446 1444 1443 1441 1440 1438 1438 1437 1435 1432 1431 1429 1428 1427 1425 1423 1422 1420 1418 1416 1414 1412 1411 1409 1408 1407
1468 1469 1469 1470 1470 1470 1471 1471 1471 1471 1471 1471 1471 1470 1470 1470 1470 1469 1468 1467 1467 1466 1465 1464 1463 1462 1462 1460 1459 1458 1457 1456 1454 1453 1452 1451 1450 1449 1448 1447 1447 1447 1446 1445 1443 1442 1440 1439 1438 1437 1436 1434 1431 1430 1429 1427 1426 1424 1423 1421 1419 1417 1415 1413 1412 1410 1409 1407 1406
1466 1467 1467 1467 1468 1468 1469 1469 1469 1469 1469 1469 1469 1469 1469 1468 1468 1467 1467 1466 1465 1464 1464 1463 1462 1461 1460 1459 1458 1457 1456 1454 1453 1452 1451 1450 1449 1448 1447 1447 1446 1446 1445 1444 1442 1441 1440 1438 1437 1437 1436 1433 1431 1429 1428 1426 1425 1423 1422 1420 1418 1416 1414 1412 1411 1409 1408 1407 1405
1464 1465 1465 1466 1466 1466 1467 1467 1467 1467 1467 1467 1467 1467 1467 1467 1466 1466 1465 1465 1464 1463 1462 1462 1461 1460 1459 1458 1457 1455 1454 1453 1452 1451 1450 1449 1448 1447 1446 1445 1445 1444 1444 1443 1442 1440 1439 1437 1436 1436 1435 1432 1430 1428 1427 1426 1424 1422 1421 1419 1417 1415 1413 1412 1410 1408 1407 1406 1404
1462 1462 1463 1463 1464 1464 1464 1465 1465 1465 1465 1465 1465 1465 1465 1465 1465 1464 1464 1463 1462 1462 1461 1460 1459 1458 1457 1456 1455 1454 1453 1452 1451 1450 1449 1448 1447 1446 1445 1444 1444 1443 1443 1442 1441 1440 1438 1437 1436 1435 1435 1433 1430 1427 1426 1425 1423 1422 1420 1418 1417 1415 1413 1411 1409 1407 1406 1404 1403
1460 1460 1461 1461 1462 1462 1462 1462 1463 1463 1463 1463 1464 1464 1463 1463 1463 1463 1462 1462 1461 1460 1459 1459 1458 1457 1456 1455 1454 1453 1452 1451 1450 1449 1448 1447 1446 1445 1444 1443 1443 1442 1442 1441 1440 1439 1437 1436 1435 1434 1434 1432 1429 1427 1426 1424 1423 1421 1420 1418 1416 1414 1412 1410 1408 1407 1405 1403 1402
1457 1458 1458 1459 1459 1460 1460 1461 1461 1462 1462 1462 1462 1462 1462 1462 1462 1461 1461 1460 1459 1459 1458 1457 1457 1456 1455 1454 1453 1452 1451 1450 1449 1448 1447 1446 1445 1444 1443 1442 1442 1441 1441 1440 1439 1438 1437 1436 1434 1434 1434 1432 1428 1426 1425 1424 1422 1421 1419 1418 1416 1414 1412 1410 1408 1406 1404 1402 1401